Weather in Jharsuguda

India     21°51′51″N   84°01′35″E
temp.,
°C
wind,
m/s
gust,
m/s
humid.,
%
clouds,
%
prec.,
mm/h
press.,
hPa
HPBL,
m
18 may, tue
tue1823:30+32sse37395 0.0 1004146
02:30+31sse245567 0.0 1004129
05:30+29ssw375820 0.0 1005238
08:30+35wsw464177 0.0 10071354
11:30+39sw453044 0.0 10052387
14:30+42wsw34216 0.0 10013662
17:30+41sw442114 0.0 10001688
20:30+35se332727 0.0 100242
19 may, wed
wed1923:30+33sse294498 0.0 1003360
02:30+32sse254883 0.0 1002221
05:30+31sw35435 0.0 1004155
08:30+37wsw46345 0.0 10051152
11:30+40wsw552616 0.0 10032509
14:30+42wsw35206 0.0 10003575
17:30+42wnw34195 0.0 9982587
20:30+37ssw33245 0.0 100138
20 may, thu
thu2023:30+34ssw51234100 0.0 1002536
02:30+31ssw494975 1.2 1002261
05:30+30sw355311 1.8 1003164
08:30+37wsw68355 0.0 10041643
11:30+40wsw67255 0.0 10032601
14:30+42wsw572112 0.0 10003707
17:30+40ssw562399 0.0 9991673
20:30+36sw4832100 0.0 1002305
21 may, fri
fri2123:30+33s6104298 0.1 1003325
02:30+31wsw364821 0.0 1002202
05:30+31n233820 0.0 100481
08:30+36nw45260 0.0 10051182
11:30+41wnw46130 0.0 10022935
14:30+43wnw66113 0.0 9993639
17:30+41wnw661216 0.0 9993592
20:30+36nnw512163 0.0 1001382
22 may, sat
sat2223:30+34n613240 0.0 1002548
02:30+31n34310 0.0 100179
05:30+29e11340 0.0 100311
08:30+36nnw25250 0.0 10041191
11:30+42nw38150 0.0 10013654
14:30+44nw47102 0.0 9984344
17:30+43n66125 0.0 9974082
20:30+36n412162 0.0 1000226